Погода в Тохмаярви

Финляндия     62°13′34″N   30°19′57″E
темп.,
°C
ветер,
м/с
пор.,
м/с
влажн.,
%
обл.,
%
осадки,
мм/ч
давл.,
гПа
погр.,
м
27 ноября, сб
сб2723:00−6сз268499 0.1 1000528
02:00−6зсз158697 0.1 1003281
05:00−9ссз009755 0.0 100510
08:00−10ссв119759 0.0 100710
11:00−8св12938 0.0 100975
14:00−9св1397100 0.0 100956
17:00−11св279591 0.0 1009158
20:00−10св31090100 0.0 1009235
28 ноября, вс
вс2823:00−10св31185100 0.0 1008278
02:00−9ссв41289100 0.0 1007345
05:00−9св41388100 0.0 1006476
08:00−8св41479100 0.0 1006616
11:00−7св41383100 0.0 1006685
14:00−7ссв41184100 0.0 1007574
17:00−8ссв41184100 0.0 1008493
20:00−8св31284100 0.0 1010527
29 ноября, пн
пн2923:00−8св31086100 0.0 1011480
02:00−8св2987100 0.0 1012416
05:00−8всв31087100 0.0 1012418
08:00−9всв3118883 0.0 1012506
11:00−9в41380100 0.0 1011583
14:00−9всв41374100 0.0 1009613
17:00−9всв5147599 0.0 1007657
20:00−9всв51478100 0.0 1004699
30 ноября, вт
вт3023:00−9св51471100 0.0 1000655
02:00−9св51578100 0.1 995595
05:00−8св51491100 0.8 991680
08:00−8св51488100 1.3 988794
11:00−7ссв51290100 0.4 985831
14:00−8ссв51292100 1.4 983748
17:00−7с41192100 0.8 982858
20:00−7с41092100 1.4 981921
1 декабря, ср
ср123:00−7ссз5119099 0.5 982678
02:00−8ссз41089100 0.6 983664
05:00−7сз4993100 0.3 984789
08:00−8сз4108884 0.5 986576
11:00−8зсз498597 0.0 988787
14:00−8зсз498599 0.1 989808
17:00−7з4985100 0.1 990710
20:00−8з4108498 0.1 990540